Time,TemperatureF,DewpointF,PressureIn,WindDirection,WindDirectionDegrees,WindSpeedMPH,WindSpeedGustMPH,Humidity,HourlyPrecipIn,Conditions,Clouds,dailyrainin,SoftwareType,DateUTC
2013-06-23 00:01:00,81.0,72.7,30.11,East,90,9.0,15.0,76,0.00,,,0.00,Rainwise IP-100,2013-06-23 04:01:00,
2013-06-23 00:06:00,81.0,73.3,30.10,SE,135,2.0,13.0,78,0.00,,,0.00,Rainwise IP-100,2013-06-23 04:06:00,
2013-06-23 00:11:00,81.0,74.0,30.10,SE,135,7.0,13.0,79,0.00,,,0.00,Rainwise IP-100,2013-06-23 04:11:00,
2013-06-23 00:16:00,81.0,74.3,30.10,East,90,7.0,15.0,80,0.00,,,0.00,Rainwise IP-100,2013-06-23 04:16:00,
2013-06-23 00:21:00,81.0,74.7,30.10,SE,135,8.0,12.0,81,0.00,,,0.00,Rainwise IP-100,2013-06-23 04:21:00,
2013-06-23 00:26:00,81.0,75.0,30.09,SE,135,3.0,13.0,82,0.00,,,0.00,Rainwise IP-100,2013-06-23 04:26:00,
2013-06-23 00:31:00,80.0,73.3,30.10,East,90,4.0,16.0,81,0.00,,,0.00,Rainwise IP-100,2013-06-23 04:31:00,
2013-06-23 00:37:00,80.0,72.0,30.10,SE,135,7.0,13.0,77,0.00,,,0.00,Rainwise IP-100,2013-06-23 04:37:00,
2013-06-23 00:42:00,80.0,72.7,30.10,SSE,157,7.0,14.0,79,0.00,,,0.00,Rainwise IP-100,2013-06-23 04:42:00,
2013-06-23 00:47:00,80.0,71.7,30.10,SE,135,8.0,10.0,76,0.00,,,0.00,Rainwise IP-100,2013-06-23 04:47:00,
2013-06-23 00:52:00,80.0,70.0,30.10,ESE,112,10.0,18.0,72,0.00,,,0.00,Rainwise IP-100,2013-06-23 04:52:00,
2013-06-23 00:57:00,80.0,69.7,30.09,ESE,112,13.0,14.0,71,0.00,,,0.00,Rainwise IP-100,2013-06-23 04:57:00,
2013-06-23 01:02:00,80.0,69.0,30.10,ESE,112,5.0,19.0,69,0.00,,,0.00,Rainwise IP-100,2013-06-23 05:02:00,
2013-06-23 01:07:00,80.0,71.0,30.09,ESE,112,11.0,14.0,74,0.00,,,0.00,Rainwise IP-100,2013-06-23 05:07:00,
2013-06-23 01:13:00,80.0,71.7,30.09,SE,135,6.0,14.0,76,0.00,,,0.00,Rainwise IP-100,2013-06-23 05:13:00,
2013-06-23 01:18:00,80.0,71.0,30.08,SE,135,7.0,10.0,74,0.00,,,0.00,Rainwise IP-100,2013-06-23 05:18:00,
2013-06-23 01:23:00,80.0,71.0,30.08,SE,135,7.0,12.0,74,0.00,,,0.00,Rainwise IP-100,2013-06-23 05:23:00,
2013-06-23 01:28:00,80.0,69.0,30.08,SE,135,7.0,9.0,69,0.00,,,0.00,Rainwise IP-100,2013-06-23 05:28:00,
2013-06-23 01:33:00,80.0,68.0,30.08,SE,135,6.0,16.0,67,0.00,,,0.00,Rainwise IP-100,2013-06-23 05:33:00,
2013-06-23 01:38:00,79.0,66.0,30.08,SSE,157,5.0,15.0,64,0.00,,,0.00,Rainwise IP-100,2013-06-23 05:38:00,
2013-06-23 01:43:00,80.0,70.0,30.07,South,180,9.0,13.0,72,0.00,,,0.00,Rainwise IP-100,2013-06-23 05:43:00,
2013-06-23 01:48:00,79.0,70.0,30.07,ESE,112,9.0,16.0,74,0.00,,,0.00,Rainwise IP-100,2013-06-23 05:48:00,
2013-06-23 01:54:00,79.0,68.5,30.07,SE,135,9.0,16.0,70,0.00,,,0.00,Rainwise IP-100,2013-06-23 05:54:00,
2013-06-23 01:59:00,79.0,69.0,30.07,ESE,112,13.0,15.0,71,0.00,,,0.00,Rainwise IP-100,2013-06-23 05:59:00,
2013-06-23 02:04:00,79.0,67.0,30.06,SSE,157,7.0,15.0,67,0.00,,,0.00,Rainwise IP-100,2013-06-23 06:04:00,
2013-06-23 02:09:00,80.0,69.3,30.06,ESE,112,10.0,15.0,70,0.00,,,0.00,Rainwise IP-100,2013-06-23 06:09:00,
2013-06-23 02:14:00,80.0,71.3,30.06,East,90,10.0,15.0,75,0.00,,,0.00,Rainwise IP-100,2013-06-23 06:14:00,
2013-06-23 02:19:00,80.0,72.0,30.06,SE,135,6.0,11.0,77,0.00,,,0.00,Rainwise IP-100,2013-06-23 06:19:00,
2013-06-23 02:24:00,80.0,72.3,30.06,SSE,157,2.0,9.0,78,0.00,,,0.00,Rainwise IP-100,2013-06-23 06:24:00,
2013-06-23 02:30:00,80.0,72.3,30.06,South,180,2.0,7.0,78,0.00,,,0.00,Rainwise IP-100,2013-06-23 06:30:00,
2013-06-23 02:35:00,80.0,72.0,30.06,SE,135,6.0,9.0,77,0.00,,,0.00,Rainwise IP-100,2013-06-23 06:35:00,
2013-06-23 02:40:00,80.0,72.3,30.06,ESE,112,5.0,9.0,78,0.00,,,0.00,Rainwise IP-100,2013-06-23 06:40:00,
2013-06-23 02:45:00,80.0,72.3,30.05,SE,135,10.0,10.0,78,0.00,,,0.00,Rainwise IP-100,2013-06-23 06:45:00,
2013-06-23 02:50:00,80.0,72.7,30.05,ESE,112,5.0,10.0,79,0.00,,,0.00,Rainwise IP-100,2013-06-23 06:50:00,
2013-06-23 02:55:00,80.0,72.7,30.06,SSE,157,6.0,9.0,79,0.00,,,0.00,Rainwise IP-100,2013-06-23 06:55:00,
2013-06-23 03:00:00,81.0,74.0,30.06,SE,135,6.0,9.0,79,0.00,,,0.00,Rainwise IP-100,2013-06-23 07:00:00,
2013-06-23 03:05:00,81.0,74.0,30.06,SE,135,8.0,10.0,79,0.00,,,0.00,Rainwise IP-100,2013-06-23 07:05:00,
2013-06-23 03:11:00,81.0,73.0,30.06,ESE,112,13.0,13.0,77,0.00,,,0.00,Rainwise IP-100,2013-06-23 07:11:00,
2013-06-23 03:16:00,81.0,72.7,30.06,South,180,7.0,13.0,76,0.00,,,0.00,Rainwise IP-100,2013-06-23 07:16:00,
2013-06-23 03:21:00,81.0,73.3,30.06,SE,135,13.0,13.0,78,0.00,,,0.00,Rainwise IP-100,2013-06-23 07:21:00,
2013-06-23 03:26:00,81.0,74.0,30.06,SE,135,7.0,13.0,79,0.00,,,0.00,Rainwise IP-100,2013-06-23 07:26:00,
2013-06-23 03:31:00,81.0,73.0,30.06,SE,135,6.0,12.0,77,0.00,,,0.00,Rainwise IP-100,2013-06-23 07:31:00,
2013-06-23 03:36:00,81.0,73.0,30.06,SE,135,8.0,16.0,77,0.00,,,0.00,Rainwise IP-100,2013-06-23 07:36:00,
2013-06-23 03:41:00,81.0,72.7,30.06,ESE,112,8.0,16.0,76,0.00,,,0.00,Rainwise IP-100,2013-06-23 07:41:00,
2013-06-23 03:47:00,81.0,72.7,30.06,ESE,112,11.0,12.0,76,0.00,,,0.00,Rainwise IP-100,2013-06-23 07:47:00,
2013-06-23 03:52:00,81.0,72.3,30.06,SE,135,6.0,16.0,75,0.00,,,0.00,Rainwise IP-100,2013-06-23 07:52:00,
2013-06-23 03:57:00,81.0,72.3,30.06,SE,135,7.0,13.0,75,0.00,,,0.00,Rainwise IP-100,2013-06-23 07:57:00,
2013-06-23 04:02:00,81.0,72.3,30.06,ESE,112,9.0,10.0,75,0.00,,,0.00,Rainwise IP-100,2013-06-23 08:02:00,
2013-06-23 04:07:00,81.0,72.7,30.06,SSE,157,6.0,9.0,76,0.00,,,0.00,Rainwise IP-100,2013-06-23 08:07:00,
2013-06-23 04:12:00,80.0,72.7,30.06,East,90,8.0,9.0,79,0.00,,,0.00,Rainwise IP-100,2013-06-23 08:12:00,
2013-06-23 04:17:00,80.0,72.7,30.06,East,90,6.0,19.0,79,0.00,,,0.00,Rainwise IP-100,2013-06-23 08:17:00,
2013-06-23 04:22:00,79.0,72.0,30.06,East,90,12.0,12.0,79,0.00,,,0.00,Rainwise IP-100,2013-06-23 08:22:00,
2013-06-23 04:28:00,79.0,71.3,30.06,NE,45,7.0,14.0,77,0.00,,,0.00,Rainwise IP-100,2013-06-23 08:28:00,
2013-06-23 04:33:00,78.0,70.5,30.06,SE,135,2.0,7.0,77,0.00,,,0.00,Rainwise IP-100,2013-06-23 08:33:00,
2013-06-23 04:38:00,78.0,71.0,30.05,NE,45,2.0,13.0,78,0.00,,,0.00,Rainwise IP-100,2013-06-23 08:38:00,
2013-06-23 04:43:00,78.0,70.5,30.05,East,90,4.0,6.0,77,0.00,,,0.00,Rainwise IP-100,2013-06-23 08:43:00,
2013-06-23 04:48:00,79.0,71.7,30.05,ESE,112,6.0,7.0,78,0.00,,,0.00,Rainwise IP-100,2013-06-23 08:48:00,
2013-06-23 04:53:00,79.0,71.3,30.05,SE,135,6.0,9.0,77,0.00,,,0.00,Rainwise IP-100,2013-06-23 08:53:00,
2013-06-23 04:58:00,79.0,71.3,30.05,South,180,2.0,9.0,77,0.00,,,0.00,Rainwise IP-100,2013-06-23 08:58:00,
2013-06-23 05:04:00,79.0,71.0,30.05,East,90,4.0,8.0,76,0.00,,,0.00,Rainwise IP-100,2013-06-23 09:04:00,
2013-06-23 05:09:00,79.0,69.3,30.05,ESE,112,7.0,11.0,72,0.00,,,0.00,Rainwise IP-100,2013-06-23 09:09:00,
2013-06-23 05:14:00,80.0,70.0,30.05,SE,135,10.0,14.0,72,0.00,,,0.00,Rainwise IP-100,2013-06-23 09:14:00,
2013-06-23 05:19:00,80.0,71.0,30.05,ESE,112,6.0,15.0,74,0.00,,,0.00,Rainwise IP-100,2013-06-23 09:19:00,
2013-06-23 05:24:00,80.0,71.0,30.05,ESE,112,10.0,15.0,74,0.00,,,0.00,Rainwise IP-100,2013-06-23 09:24:00,
2013-06-23 05:29:00,80.0,71.7,30.05,ESE,112,8.0,12.0,76,0.00,,,0.00,Rainwise IP-100,2013-06-23 09:29:00,
2013-06-23 05:34:00,80.0,72.3,30.05,East,90,6.0,13.0,78,0.00,,,0.00,Rainwise IP-100,2013-06-23 09:34:00,
2013-06-23 05:39:00,80.0,72.3,30.04,SE,135,7.0,13.0,78,0.00,,,0.00,Rainwise IP-100,2013-06-23 09:39:00,
2013-06-23 05:45:00,80.0,72.3,30.05,ESE,112,9.0,15.0,78,0.00,,,0.00,Rainwise IP-100,2013-06-23 09:45:00,
2013-06-23 05:50:00,80.0,72.0,30.05,SE,135,9.0,15.0,77,0.00,,,0.00,Rainwise IP-100,2013-06-23 09:50:00,
2013-06-23 05:55:00,80.0,72.7,30.05,SE,135,11.0,12.0,79,0.00,,,0.00,Rainwise IP-100,2013-06-23 09:55:00,
2013-06-23 06:00:00,80.0,71.7,30.05,SSE,157,8.0,14.0,76,0.00,,,0.00,Rainwise IP-100,2013-06-23 10:00:00,
2013-06-23 06:03:00,80.0,71.7,30.06,SE,135,10.0,14.0,76,0.00,,,0.00,Rainwise IP-100,2013-06-23 10:03:00,
2013-06-23 06:08:00,80.0,72.0,30.06,SE,135,6.0,10.0,77,0.00,,,0.00,Rainwise IP-100,2013-06-23 10:08:00,
2013-06-23 06:13:00,80.0,72.0,30.06,SE,135,8.0,16.0,77,0.00,,,0.00,Rainwise IP-100,2013-06-23 10:13:00,
2013-06-23 06:18:00,80.0,72.7,30.06,SSE,157,6.0,12.0,79,0.00,,,0.00,Rainwise IP-100,2013-06-23 10:18:00,
2013-06-23 06:23:00,80.0,72.7,30.06,ESE,112,8.0,14.0,79,0.00,,,0.00,Rainwise IP-100,2013-06-23 10:23:00,
2013-06-23 06:28:00,80.0,72.7,30.06,SE,135,10.0,16.0,79,0.00,,,0.00,Rainwise IP-100,2013-06-23 10:28:00,
2013-06-23 06:33:00,80.0,72.3,30.06,SE,135,10.0,16.0,78,0.00,,,0.00,Rainwise IP-100,2013-06-23 10:33:00,
2013-06-23 06:39:00,80.0,72.7,30.06,SE,135,9.0,16.0,79,0.00,,,0.00,Rainwise IP-100,2013-06-23 10:39:00,
2013-06-23 06:44:00,80.0,72.7,30.07,SSE,157,6.0,15.0,79,0.00,,,0.00,Rainwise IP-100,2013-06-23 10:44:00,
2013-06-23 06:49:00,80.0,72.3,30.07,East,90,8.0,14.0,78,0.00,,,0.00,Rainwise IP-100,2013-06-23 10:49:00,
2013-06-23 06:54:00,80.0,72.7,30.07,East,90,7.0,14.0,79,0.00,,,0.00,Rainwise IP-100,2013-06-23 10:54:00,
2013-06-23 06:59:00,81.0,74.0,30.06,SE,135,8.0,14.0,79,0.00,,,0.00,Rainwise IP-100,2013-06-23 10:59:00,
2013-06-23 07:04:00,81.0,73.0,30.06,SE,135,9.0,13.0,77,0.00,,,0.00,Rainwise IP-100,2013-06-23 11:04:00,
2013-06-23 07:09:00,81.0,72.7,30.07,SE,135,7.0,12.0,76,0.00,,,0.00,Rainwise IP-100,2013-06-23 11:09:00,
2013-06-23 07:14:00,80.0,72.0,30.07,SE,135,13.0,20.0,77,0.00,,,0.00,Rainwise IP-100,2013-06-23 11:14:00,
2013-06-23 07:20:00,79.0,72.7,30.08,SE,135,7.0,21.0,81,0.00,,,0.00,Rainwise IP-100,2013-06-23 11:20:00,
2013-06-23 07:25:00,77.0,72.0,30.08,South,180,12.0,15.0,84,0.12,,,0.02,Rainwise IP-100,2013-06-23 11:25:00,
2013-06-23 07:30:00,76.0,71.3,30.07,South,180,3.0,12.0,85,0.12,,,0.02,Rainwise IP-100,2013-06-23 11:30:00,
2013-06-23 07:35:00,77.0,73.0,30.07,SSE,157,6.0,7.0,87,0.00,,,0.02,Rainwise IP-100,2013-06-23 11:35:00,
2013-06-23 07:40:00,77.0,72.3,30.07,SSE,157,4.0,8.0,85,0.00,,,0.02,Rainwise IP-100,2013-06-23 11:40:00,
2013-06-23 07:45:00,78.0,72.7,30.07,South,180,6.0,7.0,84,0.00,,,0.02,Rainwise IP-100,2013-06-23 11:45:00,
2013-06-23 07:50:00,78.0,72.7,30.08,South,180,2.0,7.0,83,0.00,,,0.02,Rainwise IP-100,2013-06-23 11:50:00,
2013-06-23 07:56:00,79.0,73.3,30.08,South,180,3.0,4.0,83,0.00,,,0.02,Rainwise IP-100,2013-06-23 11:56:00,
2013-06-23 08:01:00,79.0,73.3,30.08,SSE,157,4.0,5.0,83,0.00,,,0.02,Rainwise IP-100,2013-06-23 12:01:00,
2013-06-23 08:06:00,80.0,75.0,30.08,SSE,157,2.0,5.0,85,0.00,,,0.02,Rainwise IP-100,2013-06-23 12:06:00,
2013-06-23 08:11:00,81.0,75.0,30.08,SE,135,2.0,7.0,82,0.00,,,0.02,Rainwise IP-100,2013-06-23 12:11:00,
2013-06-23 08:16:00,81.0,74.0,30.09,SE,135,3.0,9.0,79,0.00,,,0.02,Rainwise IP-100,2013-06-23 12:16:00,
2013-06-23 08:21:00,82.0,72.7,30.09,ESE,112,10.0,12.0,74,0.00,,,0.02,Rainwise IP-100,2013-06-23 12:21:00,
2013-06-23 08:26:00,82.0,71.0,30.10,SE,135,12.0,14.0,69,0.00,,,0.02,Rainwise IP-100,2013-06-23 12:26:00,
2013-06-23 08:31:00,82.0,69.7,30.11,SSE,157,10.0,15.0,66,0.00,,,0.02,Rainwise IP-100,2013-06-23 12:31:00,
2013-06-23 08:37:00,82.0,70.0,30.11,SE,135,9.0,16.0,67,0.00,,,0.02,Rainwise IP-100,2013-06-23 12:37:00,
2013-06-23 08:42:00,82.0,70.5,30.11,SE,135,14.0,17.0,68,0.00,,,0.02,Rainwise IP-100,2013-06-23 12:42:00,
2013-06-23 08:47:00,82.0,71.0,30.12,ESE,112,6.0,16.0,69,0.00,,,0.02,Rainwise IP-100,2013-06-23 12:47:00,
2013-06-23 08:52:00,82.0,71.3,30.12,SE,135,10.0,13.0,70,0.00,,,0.02,Rainwise IP-100,2013-06-23 12:52:00,
2013-06-23 08:57:00,82.0,71.7,30.12,SE,135,7.0,13.0,71,0.00,,,0.02,Rainwise IP-100,2013-06-23 12:57:00,
2013-06-23 09:02:00,82.0,71.7,30.12,SE,135,4.0,12.0,71,0.00,,,0.02,Rainwise IP-100,2013-06-23 13:02:00,
2013-06-23 09:07:00,82.0,71.3,30.12,SE,135,10.0,14.0,70,0.00,,,0.02,Rainwise IP-100,2013-06-23 13:07:00,
2013-06-23 09:13:00,83.0,71.7,30.12,SE,135,7.0,13.0,68,0.00,,,0.02,Rainwise IP-100,2013-06-23 13:13:00,
2013-06-23 09:17:00,83.0,71.0,30.12,SSE,157,6.0,14.0,67,0.00,,,0.02,Rainwise IP-100,2013-06-23 13:17:00,
2013-06-23 09:20:00,83.0,71.7,30.12,East,90,10.0,14.0,68,0.00,,,0.02,Rainwise IP-100,2013-06-23 13:20:00,
2013-06-23 09:25:00,84.0,71.7,30.12,SE,135,6.0,12.0,66,0.00,,,0.02,Rainwise IP-100,2013-06-23 13:25:00,
2013-06-23 09:30:00,84.0,71.7,30.13,SE,135,11.0,17.0,66,0.00,,,0.02,Rainwise IP-100,2013-06-23 13:30:00,
2013-06-23 09:36:00,84.0,71.3,30.13,SE,135,8.0,15.0,65,0.00,,,0.02,Rainwise IP-100,2013-06-23 13:36:00,
2013-06-23 09:41:00,84.0,71.7,30.13,SE,135,7.0,15.0,66,0.00,,,0.02,Rainwise IP-100,2013-06-23 13:41:00,
2013-06-23 09:46:00,84.0,72.0,30.13,SE,135,5.0,15.0,67,0.00,,,0.02,Rainwise IP-100,2013-06-23 13:46:00,
2013-06-23 09:51:00,84.0,72.0,30.13,SSE,157,3.0,10.0,67,0.00,,,0.02,Rainwise IP-100,2013-06-23 13:51:00,
2013-06-23 09:56:00,85.0,71.3,30.13,SE,135,6.0,10.0,64,0.00,,,0.02,Rainwise IP-100,2013-06-23 13:56:00,
2013-06-23 10:01:00,85.0,71.0,30.13,South,180,4.0,15.0,63,0.00,,,0.02,Rainwise IP-100,2013-06-23 14:01:00,
2013-06-23 10:06:00,85.0,72.0,30.14,South,180,10.0,12.0,65,0.00,,,0.02,Rainwise IP-100,2013-06-23 14:06:00,
2013-06-23 10:11:00,83.0,71.7,30.13,SE,135,5.0,15.0,68,0.00,,,0.02,Rainwise IP-100,2013-06-23 14:11:00,
2013-06-23 10:17:00,83.0,72.3,30.13,East,90,9.0,11.0,70,0.00,,,0.02,Rainwise IP-100,2013-06-23 14:17:00,
2013-06-23 10:22:00,84.0,73.7,30.13,East,90,9.0,12.0,71,0.00,,,0.02,Rainwise IP-100,2013-06-23 14:22:00,
2013-06-23 10:27:00,84.0,73.7,30.13,East,90,3.0,12.0,71,0.00,,,0.02,Rainwise IP-100,2013-06-23 14:27:00,
2013-06-23 10:32:00,84.0,74.3,30.13,East,90,5.0,12.0,73,0.00,,,0.02,Rainwise IP-100,2013-06-23 14:32:00,
2013-06-23 10:37:00,83.0,73.0,30.13,SE,135,3.0,13.0,72,0.00,,,0.02,Rainwise IP-100,2013-06-23 14:37:00,
2013-06-23 10:42:00,84.0,73.3,30.13,SE,135,12.0,12.0,70,0.00,,,0.02,Rainwise IP-100,2013-06-23 14:42:00,
2013-06-23 10:47:00,84.0,72.3,30.13,SE,135,13.0,15.0,68,0.00,,,0.02,Rainwise IP-100,2013-06-23 14:47:00,
2013-06-23 10:52:00,84.0,72.3,30.13,SE,135,15.0,17.0,68,0.00,,,0.02,Rainwise IP-100,2013-06-23 14:52:00,
2013-06-23 10:58:00,83.0,71.7,30.14,SE,135,9.0,17.0,68,0.00,,,0.02,Rainwise IP-100,2013-06-23 14:58:00,
2013-06-23 11:03:00,83.0,71.7,30.14,SE,135,12.0,17.0,68,0.00,,,0.02,Rainwise IP-100,2013-06-23 15:03:00,
2013-06-23 11:08:00,84.0,72.3,30.14,SE,135,7.0,14.0,68,0.00,,,0.02,Rainwise IP-100,2013-06-23 15:08:00,
2013-06-23 11:13:00,84.0,71.3,30.14,SE,135,8.0,15.0,65,0.00,,,0.02,Rainwise IP-100,2013-06-23 15:13:00,
2013-06-23 11:18:00,84.0,71.0,30.14,SE,135,7.0,16.0,64,0.00,,,0.02,Rainwise IP-100,2013-06-23 15:18:00,
2013-06-23 11:23:00,84.0,72.0,30.14,SSE,157,6.0,15.0,67,0.00,,,0.02,Rainwise IP-100,2013-06-23 15:23:00,
2013-06-23 11:28:00,85.0,73.0,30.14,SE,135,7.0,11.0,68,0.00,,,0.02,Rainwise IP-100,2013-06-23 15:28:00,
2013-06-23 11:33:00,86.0,72.7,30.14,ESE,112,5.0,12.0,65,0.00,,,0.02,Rainwise IP-100,2013-06-23 15:33:00,
2013-06-23 11:38:00,85.0,72.0,30.14,ESE,112,7.0,13.0,65,0.00,,,0.02,Rainwise IP-100,2013-06-23 15:38:00,
2013-06-23 11:44:00,86.0,73.3,30.15,SE,135,3.0,10.0,66,0.00,,,0.02,Rainwise IP-100,2013-06-23 15:44:00,
2013-06-23 11:49:00,84.0,72.3,30.15,SE,135,14.0,16.0,68,0.00,,,0.02,Rainwise IP-100,2013-06-23 15:49:00,
2013-06-23 11:54:00,84.0,72.0,30.15,SE,135,8.0,14.0,67,0.00,,,0.02,Rainwise IP-100,2013-06-23 15:54:00,
2013-06-23 11:57:00,84.0,72.0,30.15,East,90,5.0,11.0,67,0.00,,,0.02,Rainwise IP-100,2013-06-23 15:57:00,
2013-06-23 12:02:00,84.0,73.3,30.14,South,180,3.0,15.0,70,0.00,,,0.02,Rainwise IP-100,2013-06-23 16:02:00,
2013-06-23 12:08:00,85.0,72.7,30.14,South,180,4.0,11.0,67,0.00,,,0.02,Rainwise IP-100,2013-06-23 16:08:00,
2013-06-23 12:13:00,85.0,72.7,30.15,SE,135,8.0,13.0,67,0.00,,,0.02,Rainwise IP-100,2013-06-23 16:13:00,
2013-06-23 12:18:00,85.0,72.7,30.15,SE,135,6.0,15.0,67,0.00,,,0.02,Rainwise IP-100,2013-06-23 16:18:00,
2013-06-23 12:23:00,85.0,72.7,30.15,NE,45,2.0,14.0,67,0.00,,,0.02,Rainwise IP-100,2013-06-23 16:23:00,
2013-06-23 12:28:00,86.0,72.7,30.15,East,90,6.0,12.0,65,0.00,,,0.02,Rainwise IP-100,2013-06-23 16:28:00,
2013-06-23 12:33:00,85.0,72.3,30.15,ESE,112,10.0,13.0,66,0.00,,,0.02,Rainwise IP-100,2013-06-23 16:33:00,
2013-06-23 12:38:00,85.0,72.7,30.15,SE,135,5.0,15.0,67,0.00,,,0.02,Rainwise IP-100,2013-06-23 16:38:00,
2013-06-23 12:44:00,84.0,72.3,30.15,East,90,6.0,13.0,68,0.00,,,0.02,Rainwise IP-100,2013-06-23 16:44:00,
2013-06-23 12:49:00,84.0,72.0,30.15,East,90,11.0,13.0,67,0.00,,,0.02,Rainwise IP-100,2013-06-23 16:49:00,
2013-06-23 12:54:00,85.0,72.0,30.15,SE,135,7.0,16.0,65,0.00,,,0.02,Rainwise IP-100,2013-06-23 16:54:00,
2013-06-23 12:57:00,84.0,71.3,30.15,SE,135,11.0,16.0,65,0.00,,,0.02,Rainwise IP-100,2013-06-23 16:57:00,
2013-06-23 13:00:00,84.0,71.7,30.15,ESE,112,9.0,16.0,66,0.00,,,0.02,Rainwise IP-100,2013-06-23 17:00:00,
2013-06-23 13:05:00,84.0,71.0,30.15,ESE,112,9.0,17.0,64,0.00,,,0.02,Rainwise IP-100,2013-06-23 17:05:00,
2013-06-23 13:10:00,85.0,72.7,30.15,ENE,67,4.0,16.0,67,0.00,,,0.02,Rainwise IP-100,2013-06-23 17:10:00,
2013-06-23 13:15:00,85.0,72.0,30.15,SSE,157,7.0,13.0,65,0.00,,,0.02,Rainwise IP-100,2013-06-23 17:15:00,
2013-06-23 13:21:00,85.0,72.3,30.15,East,90,7.0,15.0,66,0.00,,,0.02,Rainwise IP-100,2013-06-23 17:21:00,
2013-06-23 13:26:00,86.0,72.7,30.15,SE,135,3.0,12.0,65,0.00,,,0.02,Rainwise IP-100,2013-06-23 17:26:00,
2013-06-23 13:31:00,86.0,72.7,30.15,SE,135,10.0,11.0,65,0.00,,,0.02,Rainwise IP-100,2013-06-23 17:31:00,
2013-06-23 13:36:00,86.0,72.7,30.15,SE,135,10.0,15.0,65,0.00,,,0.02,Rainwise IP-100,2013-06-23 17:36:00,
2013-06-23 13:41:00,86.0,72.3,30.15,SSE,157,0.0,13.0,64,0.00,,,0.02,Rainwise IP-100,2013-06-23 17:41:00,
2013-06-23 13:46:00,86.0,72.0,30.15,East,90,7.0,13.0,63,0.00,,,0.02,Rainwise IP-100,2013-06-23 17:46:00,
2013-06-23 13:51:00,86.0,72.3,30.15,SE,135,9.0,14.0,64,0.00,,,0.02,Rainwise IP-100,2013-06-23 17:51:00,
2013-06-23 13:57:00,86.0,72.7,30.15,SSE,157,3.0,12.0,65,0.00,,,0.02,Rainwise IP-100,2013-06-23 17:57:00,
2013-06-23 14:02:00,86.0,72.7,30.14,ENE,67,6.0,12.0,65,0.00,,,0.02,Rainwise IP-100,2013-06-23 18:02:00,
2013-06-23 14:07:00,87.0,73.3,30.14,SE,135,6.0,12.0,64,0.00,,,0.02,Rainwise IP-100,2013-06-23 18:07:00,
2013-06-23 14:12:00,87.0,72.7,30.14,East,90,7.0,10.0,63,0.00,,,0.02,Rainwise IP-100,2013-06-23 18:12:00,
2013-06-23 14:17:00,86.0,72.7,30.14,SE,135,5.0,15.0,65,0.00,,,0.02,Rainwise IP-100,2013-06-23 18:17:00,
2013-06-23 14:22:00,85.0,72.7,30.14,SE,135,7.0,16.0,67,0.00,,,0.02,Rainwise IP-100,2013-06-23 18:22:00,
2013-06-23 14:27:00,84.0,72.7,30.13,South,180,6.0,14.0,69,0.00,,,0.02,Rainwise IP-100,2013-06-23 18:27:00,
2013-06-23 14:32:00,84.0,72.3,30.13,SE,135,9.0,16.0,68,0.00,,,0.02,Rainwise IP-100,2013-06-23 18:32:00,
2013-06-23 14:37:00,84.0,72.3,30.13,SE,135,3.0,15.0,68,0.00,,,0.02,Rainwise IP-100,2013-06-23 18:37:00,
2013-06-23 14:43:00,84.0,72.7,30.13,East,90,6.0,15.0,69,0.00,,,0.02,Rainwise IP-100,2013-06-23 18:43:00,
2013-06-23 14:48:00,85.0,72.0,30.12,SE,135,7.0,10.0,65,0.00,,,0.02,Rainwise IP-100,2013-06-23 18:48:00,
2013-06-23 14:53:00,86.0,72.0,30.12,East,90,8.0,9.0,63,0.00,,,0.02,Rainwise IP-100,2013-06-23 18:53:00,
2013-06-23 14:58:00,87.0,72.7,30.12,East,90,10.0,13.0,63,0.00,,,0.02,Rainwise IP-100,2013-06-23 18:58:00,
2013-06-23 15:03:00,87.0,72.7,30.12,East,90,7.0,13.0,63,0.00,,,0.02,Rainwise IP-100,2013-06-23 19:03:00,
2013-06-23 15:08:00,86.0,72.3,30.12,SE,135,6.0,16.0,64,0.00,,,0.02,Rainwise IP-100,2013-06-23 19:08:00,
2013-06-23 15:13:00,85.0,73.0,30.12,SSE,157,6.0,13.0,68,0.00,,,0.02,Rainwise IP-100,2013-06-23 19:13:00,
2013-06-23 15:19:00,85.0,73.0,30.12,East,90,6.0,10.0,68,0.00,,,0.02,Rainwise IP-100,2013-06-23 19:19:00,
2013-06-23 15:24:00,85.0,73.0,30.12,East,90,9.0,11.0,68,0.00,,,0.02,Rainwise IP-100,2013-06-23 19:24:00,
2013-06-23 15:29:00,84.0,72.7,30.12,SE,135,5.0,16.0,69,0.00,,,0.02,Rainwise IP-100,2013-06-23 19:29:00,
2013-06-23 15:34:00,85.0,72.3,30.12,East,90,8.0,15.0,66,0.00,,,0.02,Rainwise IP-100,2013-06-23 19:34:00,
2013-06-23 15:39:00,85.0,72.0,30.12,NE,45,0.0,12.0,65,0.00,,,0.02,Rainwise IP-100,2013-06-23 19:39:00,
2013-06-23 15:44:00,85.0,71.0,30.12,East,90,2.0,9.0,63,0.00,,,0.02,Rainwise IP-100,2013-06-23 19:44:00,
2013-06-23 15:49:00,85.0,71.0,30.12,SE,135,6.0,13.0,63,0.00,,,0.02,Rainwise IP-100,2013-06-23 19:49:00,
2013-06-23 15:54:00,86.0,68.5,30.12,SE,135,6.0,10.0,56,0.00,,,0.02,Rainwise IP-100,2013-06-23 19:54:00,
2013-06-23 15:59:00,85.0,69.7,30.12,SE,135,1.0,10.0,60,0.00,,,0.02,Rainwise IP-100,2013-06-23 19:59:00,
2013-06-23 16:05:00,86.0,71.0,30.11,East,90,6.0,12.0,61,0.00,,,0.02,Rainwise IP-100,2013-06-23 20:05:00,
2013-06-23 16:10:00,86.0,70.5,30.11,SE,135,7.0,13.0,60,0.00,,,0.02,Rainwise IP-100,2013-06-23 20:10:00,
2013-06-23 16:15:00,87.0,72.0,30.12,East,90,9.0,10.0,61,0.00,,,0.02,Rainwise IP-100,2013-06-23 20:15:00,
2013-06-23 16:20:00,87.0,71.0,30.12,SE,135,5.0,12.0,59,0.00,,,0.02,Rainwise IP-100,2013-06-23 20:20:00,
2013-06-23 16:25:00,87.0,71.3,30.12,NE,45,8.0,12.0,60,0.00,,,0.02,Rainwise IP-100,2013-06-23 20:25:00,
2013-06-23 16:30:00,87.0,71.3,30.11,SSE,157,6.0,11.0,60,0.00,,,0.02,Rainwise IP-100,2013-06-23 20:30:00,
2013-06-23 16:35:00,87.0,71.3,30.12,ENE,67,4.0,12.0,60,0.00,,,0.02,Rainwise IP-100,2013-06-23 20:35:00,
2013-06-23 16:41:00,88.0,71.0,30.12,ENE,67,6.0,12.0,57,0.00,,,0.02,Rainwise IP-100,2013-06-23 20:41:00,
2013-06-23 16:46:00,87.0,70.5,30.11,ESE,112,8.0,13.0,58,0.00,,,0.02,Rainwise IP-100,2013-06-23 20:46:00,
2013-06-23 16:51:00,87.0,69.3,30.11,East,90,8.0,13.0,56,0.00,,,0.02,Rainwise IP-100,2013-06-23 20:51:00,
2013-06-23 16:56:00,87.0,70.5,30.11,NE,45,6.0,13.0,58,0.00,,,0.02,Rainwise IP-100,2013-06-23 20:56:00,
2013-06-23 17:01:00,87.0,70.5,30.11,SE,135,9.0,12.0,58,0.00,,,0.02,Rainwise IP-100,2013-06-23 21:01:00,
2013-06-23 17:06:00,87.0,70.5,30.11,ESE,112,7.0,10.0,58,0.00,,,0.02,Rainwise IP-100,2013-06-23 21:06:00,
2013-06-23 17:11:00,87.0,70.0,30.12,ENE,67,9.0,9.0,57,0.00,,,0.02,Rainwise IP-100,2013-06-23 21:11:00,
2013-06-23 17:16:00,87.0,69.3,30.12,East,90,3.0,12.0,56,0.00,,,0.02,Rainwise IP-100,2013-06-23 21:16:00,
2013-06-23 17:22:00,87.0,71.3,30.11,East,90,10.0,10.0,60,0.00,,,0.02,Rainwise IP-100,2013-06-23 21:22:00,
2013-06-23 17:27:00,86.0,71.0,30.11,NE,45,13.0,14.0,61,0.00,,,0.02,Rainwise IP-100,2013-06-23 21:27:00,
2013-06-23 17:32:00,86.0,72.0,30.11,East,90,9.0,13.0,63,0.00,,,0.02,Rainwise IP-100,2013-06-23 21:32:00,
2013-06-23 17:37:00,86.0,72.0,30.10,East,90,12.0,14.0,63,0.00,,,0.02,Rainwise IP-100,2013-06-23 21:37:00,
2013-06-23 17:42:00,86.0,72.0,30.10,East,90,5.0,15.0,63,0.00,,,0.02,Rainwise IP-100,2013-06-23 21:42:00,
2013-06-23 17:47:00,86.0,72.7,30.10,East,90,6.0,15.0,65,0.00,,,0.02,Rainwise IP-100,2013-06-23 21:47:00,
2013-06-23 17:52:00,86.0,72.3,30.10,East,90,9.0,15.0,64,0.00,,,0.02,Rainwise IP-100,2013-06-23 21:52:00,
2013-06-23 17:58:00,85.0,71.0,30.10,NE,45,11.0,14.0,63,0.00,,,0.02,Rainwise IP-100,2013-06-23 21:58:00,
2013-06-23 18:03:00,85.0,71.3,30.10,East,90,11.0,11.0,64,0.00,,,0.02,Rainwise IP-100,2013-06-23 22:03:00,
2013-06-23 18:08:00,84.0,72.0,30.10,NE,45,10.0,14.0,67,0.00,,,0.02,Rainwise IP-100,2013-06-23 22:08:00,
2013-06-23 18:13:00,84.0,72.3,30.10,NE,45,6.0,15.0,68,0.00,,,0.02,Rainwise IP-100,2013-06-23 22:13:00,
2013-06-23 18:18:00,84.0,72.3,30.09,East,90,13.0,14.0,68,0.00,,,0.02,Rainwise IP-100,2013-06-23 22:18:00,
2013-06-23 18:23:00,84.0,72.3,30.09,East,90,7.0,15.0,68,0.00,,,0.02,Rainwise IP-100,2013-06-23 22:23:00,
2013-06-23 18:28:00,84.0,72.7,30.09,NE,45,7.0,13.0,69,0.00,,,0.02,Rainwise IP-100,2013-06-23 22:28:00,
2013-06-23 18:33:00,83.0,72.0,30.09,East,90,10.0,14.0,69,0.00,,,0.02,Rainwise IP-100,2013-06-23 22:33:00,
2013-06-23 18:39:00,83.0,71.7,30.10,East,90,9.0,13.0,68,0.00,,,0.02,Rainwise IP-100,2013-06-23 22:39:00,
2013-06-23 18:44:00,83.0,71.0,30.10,East,90,2.0,10.0,67,0.00,,,0.02,Rainwise IP-100,2013-06-23 22:44:00,
2013-06-23 18:49:00,83.0,72.3,30.09,East,90,12.0,12.0,70,0.00,,,0.02,Rainwise IP-100,2013-06-23 22:49:00,
2013-06-23 18:54:00,82.0,72.0,30.09,ENE,67,5.0,16.0,72,0.00,,,0.02,Rainwise IP-100,2013-06-23 22:54:00,
2013-06-23 18:59:00,82.0,71.3,30.09,East,90,6.0,18.0,70,0.00,,,0.02,Rainwise IP-100,2013-06-23 22:59:00,
2013-06-23 19:04:00,82.0,71.3,30.08,East,90,8.0,15.0,70,0.00,,,0.02,Rainwise IP-100,2013-06-23 23:04:00,
2013-06-23 19:09:00,82.0,70.5,30.08,East,90,10.0,15.0,68,0.00,,,0.02,Rainwise IP-100,2013-06-23 23:09:00,
2013-06-23 19:14:00,82.0,70.0,30.08,SE,135,3.0,13.0,67,0.00,,,0.02,Rainwise IP-100,2013-06-23 23:14:00,
2013-06-23 19:20:00,82.0,69.7,30.08,ENE,67,6.0,12.0,66,0.00,,,0.02,Rainwise IP-100,2013-06-23 23:20:00,
2013-06-23 19:25:00,82.0,70.0,30.09,SE,135,4.0,15.0,67,0.00,,,0.02,Rainwise IP-100,2013-06-23 23:25:00,
2013-06-23 19:30:00,82.0,71.0,30.08,ENE,67,9.0,12.0,69,0.00,,,0.02,Rainwise IP-100,2013-06-23 23:30:00,
2013-06-23 19:35:00,82.0,71.7,30.08,East,90,8.0,12.0,71,0.00,,,0.02,Rainwise IP-100,2013-06-23 23:35:00,
2013-06-23 19:40:00,82.0,71.7,30.08,ESE,112,5.0,15.0,71,0.00,,,0.02,Rainwise IP-100,2013-06-23 23:40:00,
2013-06-23 19:45:00,82.0,72.0,30.09,East,90,11.0,15.0,72,0.00,,,0.02,Rainwise IP-100,2013-06-23 23:45:00,
2013-06-23 19:50:00,82.0,72.0,30.09,ESE,112,7.0,15.0,72,0.00,,,0.02,Rainwise IP-100,2013-06-23 23:50:00,
2013-06-23 19:56:00,82.0,72.3,30.10,ENE,67,7.0,13.0,73,0.00,,,0.02,Rainwise IP-100,2013-06-23 23:56:00,
2013-06-23 20:01:00,82.0,72.7,30.10,ESE,112,2.0,15.0,74,0.00,,,0.02,Rainwise IP-100,2013-06-24 00:01:00,
2013-06-23 20:06:00,81.0,71.7,30.10,ESE,112,5.0,13.0,73,0.00,,,0.02,Rainwise IP-100,2013-06-24 00:06:00,
2013-06-23 20:11:00,81.0,72.0,30.09,ENE,67,7.0,15.0,74,0.00,,,0.02,Rainwise IP-100,2013-06-24 00:11:00,
2013-06-23 20:16:00,81.0,72.0,30.10,East,90,10.0,13.0,74,0.00,,,0.02,Rainwise IP-100,2013-06-24 00:16:00,
2013-06-23 20:21:00,81.0,72.0,30.10,ESE,112,6.0,15.0,74,0.00,,,0.02,Rainwise IP-100,2013-06-24 00:21:00,
2013-06-23 20:26:00,81.0,72.7,30.10,East,90,1.0,15.0,76,0.00,,,0.02,Rainwise IP-100,2013-06-24 00:26:00,
2013-06-23 20:31:00,81.0,72.7,30.10,East,90,10.0,13.0,76,0.00,,,0.02,Rainwise IP-100,2013-06-24 00:31:00,
2013-06-23 20:36:00,81.0,72.7,30.10,NE,45,8.0,12.0,76,0.00,,,0.02,Rainwise IP-100,2013-06-24 00:36:00,
2013-06-23 20:42:00,81.0,72.7,30.10,NE,45,11.0,13.0,76,0.00,,,0.02,Rainwise IP-100,2013-06-24 00:42:00,
2013-06-23 20:47:00,81.0,72.3,30.10,East,90,7.0,12.0,75,0.00,,,0.02,Rainwise IP-100,2013-06-24 00:47:00,
2013-06-23 20:52:00,81.0,72.0,30.10,SE,135,7.0,13.0,74,0.00,,,0.02,Rainwise IP-100,2013-06-24 00:52:00,
2013-06-23 20:57:00,81.0,72.7,30.10,NE,45,6.0,13.0,76,0.00,,,0.02,Rainwise IP-100,2013-06-24 00:57:00,
2013-06-23 21:00:00,81.0,72.7,30.10,ESE,112,6.0,11.0,76,0.00,,,0.02,Rainwise IP-100,2013-06-24 01:00:00,
2013-06-23 21:05:00,81.0,72.7,30.10,East,90,9.0,13.0,76,0.00,,,0.02,Rainwise IP-100,2013-06-24 01:05:00,
2013-06-23 21:10:00,81.0,73.0,30.10,East,90,9.0,13.0,77,0.00,,,0.02,Rainwise IP-100,2013-06-24 01:10:00,
2013-06-23 21:15:00,81.0,72.7,30.10,ENE,67,6.0,15.0,76,0.00,,,0.02,Rainwise IP-100,2013-06-24 01:15:00,
2013-06-23 21:20:00,81.0,72.3,30.10,East,90,12.0,14.0,75,0.00,,,0.02,Rainwise IP-100,2013-06-24 01:20:00,
2013-06-23 21:26:00,81.0,72.0,30.10,East,90,6.0,14.0,74,0.00,,,0.02,Rainwise IP-100,2013-06-24 01:26:00,
2013-06-23 21:31:00,81.0,72.3,30.11,SE,135,9.0,15.0,75,0.00,,,0.02,Rainwise IP-100,2013-06-24 01:31:00,
2013-06-23 21:36:00,81.0,72.3,30.11,NE,45,6.0,15.0,75,0.00,,,0.02,Rainwise IP-100,2013-06-24 01:36:00,
2013-06-23 21:41:00,81.0,72.0,30.11,East,90,5.0,14.0,74,0.00,,,0.02,Rainwise IP-100,2013-06-24 01:41:00,
2013-06-23 21:46:00,81.0,72.0,30.11,ESE,112,5.0,11.0,74,0.00,,,0.02,Rainwise IP-100,2013-06-24 01:46:00,
2013-06-23 21:51:00,81.0,72.0,30.11,ENE,67,6.0,14.0,74,0.00,,,0.02,Rainwise IP-100,2013-06-24 01:51:00,
2013-06-23 21:56:00,81.0,72.0,30.11,East,90,9.0,15.0,74,0.00,,,0.02,Rainwise IP-100,2013-06-24 01:56:00,
2013-06-23 22:01:00,81.0,72.0,30.11,NE,45,8.0,13.0,74,0.00,,,0.02,Rainwise IP-100,2013-06-24 02:01:00,
2013-06-23 22:07:00,81.0,72.7,30.11,East,90,6.0,13.0,76,0.00,,,0.02,Rainwise IP-100,2013-06-24 02:07:00,
2013-06-23 22:12:00,81.0,72.3,30.11,NE,45,11.0,16.0,75,0.00,,,0.02,Rainwise IP-100,2013-06-24 02:12:00,
2013-06-23 22:17:00,81.0,72.3,30.11,NE,45,6.0,14.0,75,0.00,,,0.02,Rainwise IP-100,2013-06-24 02:17:00,
2013-06-23 22:22:00,81.0,72.3,30.12,East,90,6.0,17.0,75,0.00,,,0.02,Rainwise IP-100,2013-06-24 02:22:00,
2013-06-23 22:27:00,81.0,72.7,30.12,ENE,67,8.0,15.0,76,0.00,,,0.02,Rainwise IP-100,2013-06-24 02:27:00,
2013-06-23 22:32:00,81.0,72.7,30.11,East,90,8.0,19.0,76,0.00,,,0.02,Rainwise IP-100,2013-06-24 02:32:00,
2013-06-23 22:37:00,81.0,72.7,30.12,ESE,112,5.0,12.0,76,0.00,,,0.02,Rainwise IP-100,2013-06-24 02:37:00,
2013-06-23 22:43:00,81.0,72.0,30.12,East,90,12.0,12.0,74,0.00,,,0.02,Rainwise IP-100,2013-06-24 02:43:00,
2013-06-23 22:48:00,81.0,72.0,30.12,ENE,67,7.0,15.0,74,0.00,,,0.02,Rainwise IP-100,2013-06-24 02:48:00,
2013-06-23 22:53:00,81.0,72.3,30.12,ENE,67,9.0,13.0,75,0.00,,,0.02,Rainwise IP-100,2013-06-24 02:53:00,
2013-06-23 22:58:00,81.0,72.0,30.12,ENE,67,7.0,15.0,74,0.00,,,0.02,Rainwise IP-100,2013-06-24 02:58:00,
2013-06-23 23:03:00,81.0,72.0,30.12,ENE,67,6.0,14.0,74,0.00,,,0.02,Rainwise IP-100,2013-06-24 03:03:00,
2013-06-23 23:08:00,81.0,72.3,30.12,East,90,15.0,15.0,75,0.00,,,0.02,Rainwise IP-100,2013-06-24 03:08:00,
2013-06-23 23:13:00,81.0,72.0,30.13,East,90,9.0,16.0,74,0.00,,,0.02,Rainwise IP-100,2013-06-24 03:13:00,
2013-06-23 23:19:00,81.0,72.0,30.12,East,90,10.0,15.0,74,0.00,,,0.02,Rainwise IP-100,2013-06-24 03:19:00,
2013-06-23 23:24:00,81.0,71.7,30.13,East,90,7.0,17.0,73,0.00,,,0.02,Rainwise IP-100,2013-06-24 03:24:00,
2013-06-23 23:29:00,81.0,71.7,30.13,East,90,3.0,13.0,73,0.00,,,0.02,Rainwise IP-100,2013-06-24 03:29:00,
2013-06-23 23:34:00,81.0,72.0,30.13,East,90,6.0,13.0,74,0.00,,,0.02,Rainwise IP-100,2013-06-24 03:34:00,
2013-06-23 23:39:00,81.0,71.7,30.13,East,90,11.0,12.0,73,0.00,,,0.02,Rainwise IP-100,2013-06-24 03:39:00,
2013-06-23 23:44:00,81.0,72.0,30.13,East,90,8.0,15.0,74,0.00,,,0.02,Rainwise IP-100,2013-06-24 03:44:00,
2013-06-23 23:49:00,81.0,72.3,30.13,East,90,7.0,14.0,75,0.00,,,0.02,Rainwise IP-100,2013-06-24 03:49:00,
2013-06-23 23:54:00,81.0,72.3,30.13,East,90,7.0,15.0,75,0.00,,,0.02,Rainwise IP-100,2013-06-24 03:54:00,